Coatesville, PA

8:08 PM EST on November 11, 2019 (GMT -0500)
Chester County Carlson

Weather History for KMQS - September, 2019

Change the Weather History Date:

Wednesday, September 18, 2019

  Actual Average (KILG) Record (KILG)
Temperature  
Mean Temperature 61 °F -  
Max Temperature 71 °F 77 °F 90 °F (1915)
Min Temperature 51 °F 58 °F 40 °F (1959)
Degree Days  
Heating Degree Days 4    
Growing Degree Days 11 (Base 50)    
Moisture  
Dew Point 50 °F    
Average Humidity 71    
Maximum Humidity 94    
Minimum Humidity 43    
Precipitation  
Precipitation 0.00 in - - ()
Sea Level Pressure  
Sea Level Pressure 30.23 in    
Wind  
Wind Speed 3 mph ()    
Max Wind Speed 10 mph    
Max Gust Speed 20 mph    
Visibility 10.0 miles    
Events      
Averages and records for this station are not official NWS values.
T = Trace of Precipitation, MM = Missing Value Source: Averaged Metar Reports

Daily Weather History Graph

Daily Weather History Graph

Search for Another Location

Airport or City:

Astronomy

Sep. 18, 2019 Rise Set
Actual Time 6:47 AM EDT 7:07 PM EDT
Civil Twilight 6:19 AM EDT 7:34 PM EDT
Nautical Twilight 5:48 AM EDT 8:06 PM EDT
Astronomical Twilight 5:15 AM EDT 8:38 PM EDT
Moon 9:40 PM EDT (9/18) 10:47 AM EDT (9/18)
Length of Visible Light 13h 14m
Length of Day
12h 20m
Waning Gibbous, 82% of the Moon is Illuminated
Sep 18
Waning Gibbous
Sep 21
Last Quarter
Sep 28
New
Oct 5
First Quarter
Oct 13
Full

Hourly Weather History & Observations

Time (EDT) Temp. Dew Point Humidity Pressure Visibility Wind Dir Wind Speed Gust Speed Precip Events Conditions
12:15 AM 55.4 °F 51.8 °F 88% 30.17 in 10.0 mi Calm Calm - N/A   Clear
12:35 AM 55.4 °F 51.8 °F 88% 30.17 in 10.0 mi Calm Calm - N/A   Clear
12:55 AM 55.4 °F 53.6 °F 94% 30.17 in 10.0 mi Calm Calm - N/A   Clear
1:15 AM 55.4 °F 51.8 °F 88% 30.17 in 10.0 mi Calm Calm - N/A   Clear
1:35 AM 53.6 °F 51.8 °F 94% 30.18 in 10.0 mi Calm Calm - N/A   Clear
1:55 AM 55.4 °F 51.8 °F 88% 30.18 in 10.0 mi North 3.5 mph - N/A   Clear
2:15 AM 53.6 °F 51.8 °F 94% 30.18 in 10.0 mi Calm Calm - N/A   Clear
2:35 AM 53.6 °F 51.8 °F 94% 30.18 in 10.0 mi Calm Calm - N/A   Clear
2:55 AM 55.4 °F 51.8 °F 88% 30.18 in 10.0 mi North 3.5 mph - N/A   Clear
3:15 AM 53.6 °F 50.0 °F 88% 30.18 in 10.0 mi NNE 4.6 mph - N/A   Clear
3:35 AM 53.6 °F 50.0 °F 88% 30.17 in 10.0 mi North 3.5 mph - N/A   Clear
3:55 AM 53.6 °F 50.0 °F 88% 30.18 in 10.0 mi Calm Calm - N/A   Clear
4:15 AM 53.6 °F 50.0 °F 88% 30.18 in 10.0 mi Calm Calm - N/A   Clear
4:35 AM 53.6 °F 48.2 °F 82% 30.18 in 10.0 mi Calm Calm - N/A   Clear
4:55 AM 53.6 °F 48.2 °F 82% 30.18 in 10.0 mi Calm Calm - N/A   Clear
5:15 AM 53.6 °F 48.2 °F 82% 30.19 in 10.0 mi North 5.8 mph - N/A   Clear
5:35 AM 53.6 °F 48.2 °F 82% 30.19 in 10.0 mi North 4.6 mph - N/A   Clear
5:55 AM 53.6 °F 48.2 °F 82% 30.19 in 10.0 mi North 3.5 mph - N/A   Clear
6:15 AM 51.8 °F 48.2 °F 88% 30.20 in 10.0 mi North 4.6 mph - N/A   Clear
6:35 AM 53.6 °F 48.2 °F 82% 30.21 in 10.0 mi NNE 4.6 mph - N/A   Clear
6:55 AM 53.6 °F 48.2 °F 82% 30.21 in 10.0 mi NNE 4.6 mph - N/A   Clear
7:15 AM 53.6 °F 48.2 °F 82% 30.22 in 10.0 mi North 4.6 mph - N/A   Clear
7:35 AM 53.6 °F 48.2 °F 82% 30.23 in 10.0 mi NNE 3.5 mph - N/A   Clear
7:55 AM 55.4 °F 48.2 °F 77% 30.23 in 10.0 mi North 4.6 mph - N/A   Clear
8:15 AM 57.2 °F 48.2 °F 72% 30.24 in 10.0 mi NNE 5.8 mph - N/A   Clear
8:35 AM 57.2 °F 48.2 °F 72% 30.24 in 10.0 mi NNE 5.8 mph - N/A   Clear
8:55 AM 59.0 °F 48.2 °F 67% 30.25 in 10.0 mi NE 4.6 mph 11.5 mph N/A   Clear
9:15 AM 59.0 °F 50.0 °F 72% 30.25 in 10.0 mi NE 3.5 mph - N/A   Clear
9:35 AM 60.8 °F 50.0 °F 68% 30.25 in 10.0 mi ENE 3.5 mph - N/A   Clear
9:55 AM 62.6 °F 51.8 °F 68% 30.25 in 10.0 mi NNE 4.6 mph - N/A   Clear
10:15 AM 62.6 °F 51.8 °F 68% 30.25 in 10.0 mi Calm Calm - N/A   Clear
10:35 AM 64.4 °F 53.6 °F 68% 30.25 in 10.0 mi Variable 3.5 mph 11.5 mph N/A   Clear
10:55 AM 64.4 °F 53.6 °F 68% 30.25 in 10.0 mi North 5.8 mph - N/A   Clear
11:15 AM 66.2 °F 53.6 °F 64% 30.25 in 10.0 mi Variable 4.6 mph - N/A   Clear
11:35 AM 66.2 °F 53.6 °F 64% 30.25 in 10.0 mi East 8.1 mph - N/A   Partly Cloudy
11:55 AM 66.2 °F 53.6 °F 64% 30.25 in 10.0 mi Variable 3.5 mph 13.8 mph N/A   Scattered Clouds
12:15 PM 68.0 °F 53.6 °F 60% 30.25 in 10.0 mi Variable 4.6 mph 11.5 mph N/A   Mostly Cloudy
12:35 PM 66.2 °F 51.8 °F 60% 30.25 in 10.0 mi NNE 5.8 mph - N/A   Mostly Cloudy
12:55 PM 69.8 °F 50.0 °F 49% 30.25 in 10.0 mi NE 6.9 mph - N/A   Scattered Clouds
1:15 PM 69.8 °F 51.8 °F 53% 30.24 in 10.0 mi Variable 5.8 mph - N/A   Scattered Clouds
1:35 PM 68.0 °F 50.0 °F 52% 30.24 in 10.0 mi NNE 5.8 mph - N/A   Mostly Cloudy
1:55 PM 69.8 °F 50.0 °F 49% 30.23 in 10.0 mi East 9.2 mph 16.1 mph N/A   Partly Cloudy
2:15 PM 71.6 °F 48.2 °F 43% 30.23 in 10.0 mi ENE 3.5 mph - N/A   Partly Cloudy
2:35 PM 71.6 °F 50.0 °F 46% 30.23 in 10.0 mi NNE 6.9 mph 19.6 mph N/A   Scattered Clouds
2:55 PM 71.6 °F 50.0 °F 46% 30.23 in 10.0 mi NNE 4.6 mph 12.7 mph N/A   Partly Cloudy
3:15 PM 71.6 °F 48.2 °F 43% 30.23 in 10.0 mi ENE 5.8 mph 12.7 mph N/A   Clear
3:35 PM 71.6 °F 48.2 °F 43% 30.23 in 10.0 mi Variable 5.8 mph 17.3 mph N/A   Partly Cloudy
3:55 PM 69.8 °F 48.2 °F 46% 30.23 in 10.0 mi ENE 10.4 mph 16.1 mph N/A   Clear
4:15 PM 69.8 °F 48.2 °F 46% 30.23 in 10.0 mi North 6.9 mph 15.0 mph N/A   Clear
4:35 PM 71.6 °F 50.0 °F 46% 30.23 in 10.0 mi ENE 8.1 mph 18.4 mph N/A   Partly Cloudy
4:55 PM 69.8 °F 48.2 °F 46% 30.23 in 10.0 mi Variable 3.5 mph - N/A   Clear
5:15 PM 69.8 °F 48.2 °F 46% 30.23 in 10.0 mi ENE 4.6 mph - N/A   Clear
5:35 PM 69.8 °F 48.2 °F 46% 30.23 in 10.0 mi Variable 4.6 mph - N/A   Partly Cloudy
5:55 PM 68.0 °F 48.2 °F 49% 30.23 in 10.0 mi North 5.8 mph - N/A   Clear
6:15 PM 68.0 °F 48.2 °F 49% 30.24 in 10.0 mi North 4.6 mph - N/A   Clear
6:35 PM 68.0 °F 48.2 °F 49% 30.24 in 10.0 mi Calm Calm - N/A   Clear
6:55 PM 66.2 °F 50.0 °F 56% 30.24 in 10.0 mi Calm Calm - N/A   Clear
7:15 PM 64.4 °F 50.0 °F 59% 30.25 in 10.0 mi Calm Calm - N/A   Clear
7:35 PM 62.6 °F 51.8 °F 68% 30.26 in 10.0 mi Calm Calm - N/A   Clear
7:55 PM 60.8 °F 51.8 °F 72% 30.26 in 10.0 mi Calm Calm - N/A   Clear
8:15 PM 60.8 °F 51.8 °F 72% 30.26 in 10.0 mi Calm Calm - N/A   Clear
8:35 PM 59.0 °F 51.8 °F 77% 30.26 in 10.0 mi Calm Calm - N/A   Clear
8:55 PM 59.0 °F 51.8 °F 77% 30.27 in 10.0 mi Calm Calm - N/A   Clear
9:15 PM 57.2 °F 51.8 °F 82% 30.27 in 10.0 mi Calm Calm - N/A   Clear
9:35 PM 57.2 °F 51.8 °F 82% 30.28 in 10.0 mi ESE 4.6 mph - N/A   Clear
9:55 PM 57.2 °F 51.8 °F 82% 30.29 in 10.0 mi ESE 3.5 mph - N/A   Clear
10:15 PM 57.2 °F 51.8 °F 82% 30.30 in 10.0 mi ESE 3.5 mph - N/A   Clear
10:35 PM 57.2 °F 51.8 °F 82% 30.31 in 10.0 mi ESE 3.5 mph - N/A   Clear
10:55 PM 57.2 °F 51.8 °F 82% 30.31 in 10.0 mi Calm Calm - N/A   Clear
11:15 PM 55.4 °F 50.0 °F 82% 30.32 in 10.0 mi Calm Calm - N/A   Clear
11:35 PM 55.4 °F 50.0 °F 82% 30.32 in 10.0 mi East 3.5 mph - N/A   Clear
11:55 PM 53.6 °F 50.0 °F 88% 30.32 in 10.0 mi East 4.6 mph - N/A   Clear